Year,Month,Day,Hour,Minute,Value (Times are PST for windspeed in km/hr)
2011,07,05,00,00,0.00
2011,07,05,00,01,0.00
2011,07,05,00,02,0.00
2011,07,05,00,03,0.00
2011,07,05,00,04,0.00
2011,07,05,00,05,0.00
2011,07,05,00,06,0.00
2011,07,05,00,07,0.00
2011,07,05,00,08,0.00
2011,07,05,00,09,0.00
2011,07,05,00,10,0.00
2011,07,05,00,11,0.00
2011,07,05,00,12,0.00
2011,07,05,00,13,0.00
2011,07,05,00,14,0.00
2011,07,05,00,15,0.00
2011,07,05,00,16,0.00
2011,07,05,00,17,0.00
2011,07,05,00,18,0.00
2011,07,05,00,19,0.00
2011,07,05,00,20,0.00
2011,07,05,00,21,0.00
2011,07,05,00,22,0.10
2011,07,05,00,23,0.20
2011,07,05,00,24,0.20
2011,07,05,00,25,0.60
2011,07,05,00,26,0.20
2011,07,05,00,27,0.20
2011,07,05,00,28,0.10
2011,07,05,00,29,0.00
2011,07,05,00,30,0.00
2011,07,05,00,31,0.00
2011,07,05,00,32,0.00
2011,07,05,00,33,0.00
2011,07,05,00,34,0.00
2011,07,05,00,35,0.10
2011,07,05,00,36,0.00
2011,07,05,00,37,0.00
2011,07,05,00,38,0.00
2011,07,05,00,39,0.00
2011,07,05,00,40,0.00
2011,07,05,00,41,0.00
2011,07,05,00,42,0.00
2011,07,05,00,43,0.00
2011,07,05,00,44,0.00
2011,07,05,00,45,0.00
2011,07,05,00,46,0.00
2011,07,05,00,47,0.00
2011,07,05,00,48,0.00
2011,07,05,00,49,0.00
2011,07,05,00,50,0.00
2011,07,05,00,51,0.00
2011,07,05,00,52,0.00
2011,07,05,00,53,0.00
2011,07,05,00,54,0.00
2011,07,05,00,55,0.00
2011,07,05,00,56,0.00
2011,07,05,00,57,0.00
2011,07,05,00,58,0.00
2011,07,05,00,59,0.00
2011,07,05,01,00,0.00
2011,07,05,01,01,0.00
2011,07,05,01,02,0.00
2011,07,05,01,03,0.00
2011,07,05,01,04,0.00
2011,07,05,01,05,0.00
2011,07,05,01,06,0.00
2011,07,05,01,07,0.00
2011,07,05,01,08,0.00
2011,07,05,01,09,0.00
2011,07,05,01,10,0.00
2011,07,05,01,11,0.00
2011,07,05,01,12,0.00
2011,07,05,01,13,0.00
2011,07,05,01,14,0.00
2011,07,05,01,15,0.00
2011,07,05,01,16,0.00
2011,07,05,01,17,0.00
2011,07,05,01,18,0.00
2011,07,05,01,19,0.00
2011,07,05,01,20,0.00
2011,07,05,01,21,0.60
2011,07,05,01,22,4.00
2011,07,05,01,23,3.00
2011,07,05,01,24,4.50
2011,07,05,01,25,4.60
2011,07,05,01,26,2.80
2011,07,05,01,27,1.80
2011,07,05,01,28,0.30
2011,07,05,01,29,0.90
2011,07,05,01,30,2.20
2011,07,05,01,31,0.30
2011,07,05,01,32,0.10
2011,07,05,01,33,0.30
2011,07,05,01,34,0.10
2011,07,05,01,35,1.00
2011,07,05,01,36,0.60
2011,07,05,01,37,0.80
2011,07,05,01,38,2.40
2011,07,05,01,39,0.30
2011,07,05,01,40,0.00
2011,07,05,01,41,0.20
2011,07,05,01,42,0.10
2011,07,05,01,43,0.30
2011,07,05,01,44,0.00
2011,07,05,01,45,0.00
2011,07,05,01,46,0.00
2011,07,05,01,47,0.10
2011,07,05,01,48,0.20
2011,07,05,01,49,1.90
2011,07,05,01,50,2.20
2011,07,05,01,51,1.10
2011,07,05,01,52,0.10
2011,07,05,01,53,0.20
2011,07,05,01,54,0.20
2011,07,05,01,55,0.10
2011,07,05,01,56,0.10
2011,07,05,01,57,0.00
2011,07,05,01,58,0.00
2011,07,05,01,59,0.20
2011,07,05,02,00,0.30
2011,07,05,02,01,0.10
2011,07,05,02,02,0.00
2011,07,05,02,03,0.00
2011,07,05,02,04,0.10
2011,07,05,02,05,0.20
2011,07,05,02,06,0.00
2011,07,05,02,07,0.00
2011,07,05,02,08,0.00
2011,07,05,02,09,0.00
2011,07,05,02,10,0.00
2011,07,05,02,11,0.00
2011,07,05,02,12,0.10
2011,07,05,02,13,0.20
2011,07,05,02,14,0.00
2011,07,05,02,15,0.20
2011,07,05,02,16,0.20
2011,07,05,02,17,0.00
2011,07,05,02,18,0.00
2011,07,05,02,19,0.00
2011,07,05,02,20,0.00
2011,07,05,02,21,0.00
2011,07,05,02,22,0.00
2011,07,05,02,23,0.00
2011,07,05,02,24,0.00
2011,07,05,02,25,0.00
2011,07,05,02,26,0.00
2011,07,05,02,27,0.00
2011,07,05,02,28,0.00
2011,07,05,02,29,0.00
2011,07,05,02,30,0.00
2011,07,05,02,31,0.00
2011,07,05,02,32,0.00
2011,07,05,02,33,0.00
2011,07,05,02,34,0.00
2011,07,05,02,35,0.00
2011,07,05,02,36,0.00
2011,07,05,02,37,0.00
2011,07,05,02,38,0.00
2011,07,05,02,39,0.00
2011,07,05,02,40,0.00
2011,07,05,02,41,0.20
2011,07,05,02,42,0.00
2011,07,05,02,43,0.00
2011,07,05,02,44,0.00
2011,07,05,02,45,0.00
2011,07,05,02,46,0.00
2011,07,05,02,47,0.00
2011,07,05,02,48,0.00
2011,07,05,02,49,0.00
2011,07,05,02,50,0.00
2011,07,05,02,51,0.00
2011,07,05,02,52,0.00
2011,07,05,02,53,0.00
2011,07,05,02,54,0.00
2011,07,05,02,55,0.00
2011,07,05,02,56,0.00
2011,07,05,02,57,0.00
2011,07,05,02,58,0.00
2011,07,05,02,59,0.00
2011,07,05,03,00,0.00
2011,07,05,03,01,0.00
2011,07,05,03,02,0.00
2011,07,05,03,03,0.00
2011,07,05,03,04,0.00
2011,07,05,03,05,0.00
2011,07,05,03,06,0.00
2011,07,05,03,07,0.00
2011,07,05,03,08,0.00
2011,07,05,03,09,0.00
2011,07,05,03,10,0.00
2011,07,05,03,11,0.00
2011,07,05,03,12,0.00
2011,07,05,03,13,0.00
2011,07,05,03,14,0.00
2011,07,05,03,15,0.00
2011,07,05,03,16,0.00
2011,07,05,03,17,0.00
2011,07,05,03,18,0.20
2011,07,05,03,19,0.10
2011,07,05,03,20,0.00
2011,07,05,03,21,0.00
2011,07,05,03,22,0.00
2011,07,05,03,23,0.00
2011,07,05,03,24,0.00
2011,07,05,03,25,0.00
2011,07,05,03,26,0.00
2011,07,05,03,27,0.00
2011,07,05,03,28,0.00
2011,07,05,03,29,0.00
2011,07,05,03,30,0.00
2011,07,05,03,31,0.00
2011,07,05,03,32,0.00
2011,07,05,03,33,0.00
2011,07,05,03,34,0.00
2011,07,05,03,35,0.00
2011,07,05,03,36,0.00
2011,07,05,03,37,0.10
2011,07,05,03,38,0.00
2011,07,05,03,39,0.00
2011,07,05,03,40,0.60
2011,07,05,03,41,0.10
2011,07,05,03,42,0.10
2011,07,05,03,43,0.20
2011,07,05,03,44,0.80
2011,07,05,03,45,0.10
2011,07,05,03,46,0.00
2011,07,05,03,47,2.10
2011,07,05,03,48,1.60
2011,07,05,03,49,2.10
2011,07,05,03,50,3.20
2011,07,05,03,51,1.10
2011,07,05,03,52,0.40
2011,07,05,03,53,0.30
2011,07,05,03,54,2.40
2011,07,05,03,55,1.30
2011,07,05,03,56,0.00
2011,07,05,03,57,0.00
2011,07,05,03,58,0.00
2011,07,05,03,59,1.30
2011,07,05,04,00,1.30
2011,07,05,04,01,2.40
2011,07,05,04,02,2.80
2011,07,05,04,03,1.70
2011,07,05,04,04,1.70
2011,07,05,04,05,2.20
2011,07,05,04,06,1.50
2011,07,05,04,07,0.60
2011,07,05,04,08,0.10
2011,07,05,04,09,0.20
2011,07,05,04,10,0.20
2011,07,05,04,11,0.20
2011,07,05,04,12,0.10
2011,07,05,04,13,0.40
2011,07,05,04,14,1.30
2011,07,05,04,15,0.10
2011,07,05,04,16,0.10
2011,07,05,04,17,2.10
2011,07,05,04,18,2.80
2011,07,05,04,19,2.50
2011,07,05,04,20,0.20
2011,07,05,04,21,0.90
2011,07,05,04,22,0.10
2011,07,05,04,23,0.00
2011,07,05,04,24,0.00
2011,07,05,04,25,0.00
2011,07,05,04,26,0.00
2011,07,05,04,27,0.00
2011,07,05,04,28,0.00
2011,07,05,04,29,0.00
2011,07,05,04,30,0.00
2011,07,05,04,31,0.00
2011,07,05,04,32,0.00
2011,07,05,04,33,0.00
2011,07,05,04,34,0.00
2011,07,05,04,35,0.00
2011,07,05,04,36,0.00
2011,07,05,04,37,0.00
2011,07,05,04,38,0.00
2011,07,05,04,39,0.00
2011,07,05,04,40,0.00
2011,07,05,04,41,0.00
2011,07,05,04,42,0.00
2011,07,05,04,43,0.00
2011,07,05,04,44,0.00
2011,07,05,04,45,0.00
2011,07,05,04,46,0.00
2011,07,05,04,47,0.00
2011,07,05,04,48,0.00
2011,07,05,04,49,0.00
2011,07,05,04,50,0.00
2011,07,05,04,51,0.00
2011,07,05,04,52,0.00
2011,07,05,04,53,0.00
2011,07,05,04,54,0.00
2011,07,05,04,55,0.00
2011,07,05,04,56,0.00
2011,07,05,04,57,0.00
2011,07,05,04,58,0.00
2011,07,05,04,59,0.00
2011,07,05,05,00,0.00
2011,07,05,05,01,0.00
2011,07,05,05,02,0.00
2011,07,05,05,03,0.00
2011,07,05,05,04,0.00
2011,07,05,05,05,0.00
2011,07,05,05,06,0.00
2011,07,05,05,07,0.00
2011,07,05,05,08,0.00
2011,07,05,05,09,0.00
2011,07,05,05,10,0.00
2011,07,05,05,11,0.00
2011,07,05,05,12,0.00
2011,07,05,05,13,0.00
2011,07,05,05,14,0.00
2011,07,05,05,15,0.00
2011,07,05,05,16,0.00
2011,07,05,05,17,0.00
2011,07,05,05,18,0.00
2011,07,05,05,19,0.00
2011,07,05,05,20,0.00
2011,07,05,05,21,0.00
2011,07,05,05,22,0.00
2011,07,05,05,23,0.00
2011,07,05,05,24,0.00
2011,07,05,05,25,0.00
2011,07,05,05,26,0.00
2011,07,05,05,27,0.00
2011,07,05,05,28,0.00
2011,07,05,05,29,0.00
2011,07,05,05,30,0.00
2011,07,05,05,31,0.00
2011,07,05,05,32,0.00
2011,07,05,05,33,0.00
2011,07,05,05,34,0.00
2011,07,05,05,35,0.00
2011,07,05,05,36,0.00
2011,07,05,05,37,0.00
2011,07,05,05,38,0.10
2011,07,05,05,39,0.00
2011,07,05,05,40,0.00
2011,07,05,05,41,0.00
2011,07,05,05,42,0.00
2011,07,05,05,43,0.00
2011,07,05,05,44,0.00
2011,07,05,05,45,0.00
2011,07,05,05,46,0.00
2011,07,05,05,47,0.00
2011,07,05,05,48,0.00
2011,07,05,05,49,0.00
2011,07,05,05,50,0.00
2011,07,05,05,51,0.00
2011,07,05,05,52,0.00
2011,07,05,05,53,0.00
2011,07,05,05,54,0.00
2011,07,05,05,55,0.00
2011,07,05,05,56,0.00
2011,07,05,05,57,0.00
2011,07,05,05,58,0.00
2011,07,05,05,59,0.00
2011,07,05,06,00,0.00
2011,07,05,06,01,0.00
2011,07,05,06,02,0.00
2011,07,05,06,03,0.00
2011,07,05,06,04,0.00
2011,07,05,06,05,0.00
2011,07,05,06,06,0.00
2011,07,05,06,07,0.00
2011,07,05,06,08,0.00
2011,07,05,06,09,0.00
2011,07,05,06,10,0.00
2011,07,05,06,11,0.00
2011,07,05,06,12,0.00
2011,07,05,06,13,0.00
2011,07,05,06,14,0.00
2011,07,05,06,15,0.00
2011,07,05,06,16,1.00
2011,07,05,06,17,0.40
2011,07,05,06,18,0.20
2011,07,05,06,19,0.00
2011,07,05,06,20,0.10
2011,07,05,06,21,0.40
2011,07,05,06,22,0.00
2011,07,05,06,23,0.10
2011,07,05,06,24,0.40
2011,07,05,06,25,0.30
2011,07,05,06,26,0.20
2011,07,05,06,27,0.70
2011,07,05,06,28,1.20
2011,07,05,06,29,0.10
2011,07,05,06,30,0.20
2011,07,05,06,31,0.00
2011,07,05,06,32,0.00
2011,07,05,06,33,0.10
2011,07,05,06,34,0.00
2011,07,05,06,35,1.00
2011,07,05,06,36,0.20
2011,07,05,06,37,0.20
2011,07,05,06,38,0.90
2011,07,05,06,39,1.10
2011,07,05,06,40,0.00
2011,07,05,06,41,0.30
2011,07,05,06,42,1.60
2011,07,05,06,43,0.20
2011,07,05,06,44,0.30
2011,07,05,06,45,1.00
2011,07,05,06,46,0.10
2011,07,05,06,47,0.30
2011,07,05,06,48,0.50
2011,07,05,06,49,2.10
2011,07,05,06,50,3.40
2011,07,05,06,51,2.20
2011,07,05,06,52,2.80
2011,07,05,06,53,0.40
2011,07,05,06,54,2.90
2011,07,05,06,55,2.20
2011,07,05,06,56,2.10
2011,07,05,06,57,4.00
2011,07,05,06,58,3.10
2011,07,05,06,59,0.40
2011,07,05,07,00,2.90
2011,07,05,07,01,2.70
2011,07,05,07,02,3.80
2011,07,05,07,03,5.10
2011,07,05,07,04,3.50
2011,07,05,07,05,3.30
2011,07,05,07,06,2.50
2011,07,05,07,07,3.20
2011,07,05,07,08,5.30
2011,07,05,07,09,3.10
2011,07,05,07,10,0.20
2011,07,05,07,11,0.60
2011,07,05,07,12,3.70
2011,07,05,07,13,2.50
2011,07,05,07,14,5.80
2011,07,05,07,15,1.90
2011,07,05,07,16,4.30
2011,07,05,07,17,0.40
2011,07,05,07,18,0.80
2011,07,05,07,19,1.60
2011,07,05,07,20,3.90
2011,07,05,07,21,1.80
2011,07,05,07,22,1.80
2011,07,05,07,23,3.40
2011,07,05,07,24,4.20
2011,07,05,07,25,3.50
2011,07,05,07,26,4.10
2011,07,05,07,27,2.00
2011,07,05,07,28,2.40
2011,07,05,07,29,4.70
2011,07,05,07,30,3.20
2011,07,05,07,31,3.70
2011,07,05,07,32,4.30
2011,07,05,07,33,2.70
2011,07,05,07,34,4.10
2011,07,05,07,35,3.10
2011,07,05,07,36,4.30
2011,07,05,07,37,4.10
2011,07,05,07,38,4.80
2011,07,05,07,39,4.90
2011,07,05,07,40,5.00
2011,07,05,07,41,1.90
2011,07,05,07,42,4.10
2011,07,05,07,43,4.60
2011,07,05,07,44,4.90
2011,07,05,07,45,4.80
2011,07,05,07,46,4.70
2011,07,05,07,47,1.00
2011,07,05,07,48,1.90
2011,07,05,07,49,1.10
2011,07,05,07,50,3.40
2011,07,05,07,51,2.40
2011,07,05,07,52,0.60
2011,07,05,07,53,2.60
2011,07,05,07,54,1.90
2011,07,05,07,55,3.40
2011,07,05,07,56,1.70
2011,07,05,07,57,3.20
2011,07,05,07,58,4.90
2011,07,05,07,59,4.90
2011,07,05,08,00,4.20
2011,07,05,08,01,2.90
2011,07,05,08,02,2.40
2011,07,05,08,03,1.00
2011,07,05,08,04,2.50
2011,07,05,08,05,0.20
2011,07,05,08,06,1.50
2011,07,05,08,07,3.40
2011,07,05,08,08,3.90
2011,07,05,08,09,0.60
2011,07,05,08,10,2.00
2011,07,05,08,11,1.70
2011,07,05,08,12,0.50
2011,07,05,08,13,0.20
2011,07,05,08,14,1.00
2011,07,05,08,15,0.20
2011,07,05,08,16,0.60
2011,07,05,08,17,0.40
2011,07,05,08,18,2.60
2011,07,05,08,19,1.10
2011,07,05,08,20,0.60
2011,07,05,08,21,2.80
2011,07,05,08,22,2.80
2011,07,05,08,23,0.70
2011,07,05,08,24,3.00
2011,07,05,08,25,1.50
2011,07,05,08,26,2.10
2011,07,05,08,27,1.90
2011,07,05,08,28,2.80
2011,07,05,08,29,2.20
2011,07,05,08,30,1.10
2011,07,05,08,31,4.50
2011,07,05,08,32,3.90
2011,07,05,08,33,1.30
2011,07,05,08,34,3.90
2011,07,05,08,35,4.80
2011,07,05,08,36,5.60
2011,07,05,08,37,3.90
2011,07,05,08,38,0.20
2011,07,05,08,39,2.50
2011,07,05,08,40,4.50
2011,07,05,08,41,3.80
2011,07,05,08,42,5.60
2011,07,05,08,43,3.90
2011,07,05,08,44,0.80
2011,07,05,10,01,3.40
2011,07,05,10,02,5.20
2011,07,05,10,03,4.50
2011,07,05,10,04,4.30
2011,07,05,10,05,4.10
2011,07,05,10,06,3.10
2011,07,05,10,07,0.50
2011,07,05,10,08,0.90
2011,07,05,10,09,4.00
2011,07,05,10,10,2.10
2011,07,05,10,11,4.90
2011,07,05,10,12,4.70
2011,07,05,10,13,3.30
2011,07,05,10,14,3.10
2011,07,05,10,15,5.60
2011,07,05,10,16,4.70
2011,07,05,10,17,2.30
2011,07,05,10,18,4.30
2011,07,05,10,19,7.10
2011,07,05,10,20,5.50
2011,07,05,10,21,6.30
2011,07,05,10,22,7.30
2011,07,05,10,23,4.80
2011,07,05,10,24,4.70
2011,07,05,10,25,4.70
2011,07,05,10,26,3.30
2011,07,05,10,27,7.30
2011,07,05,10,28,5.50
2011,07,05,10,29,6.00
2011,07,05,10,30,8.10
2011,07,05,10,31,6.20
2011,07,05,10,32,2.50
2011,07,05,10,33,8.50
2011,07,05,10,34,3.30
2011,07,05,10,35,4.70
2011,07,05,10,36,5.80
2011,07,05,10,37,6.20
2011,07,05,10,38,6.60
2011,07,05,10,39,7.80
2011,07,05,10,40,5.00
2011,07,05,10,41,6.60
2011,07,05,10,42,5.10
2011,07,05,10,43,3.50
2011,07,05,10,44,7.70
2011,07,05,10,45,6.00
2011,07,05,10,46,5.30
2011,07,05,10,47,2.70
2011,07,05,10,48,8.30
2011,07,05,10,49,6.70
2011,07,05,10,50,3.30
2011,07,05,10,51,6.40
2011,07,05,10,52,5.90
2011,07,05,10,53,5.10
2011,07,05,10,54,5.40
2011,07,05,10,55,8.00
2011,07,05,10,56,7.90
2011,07,05,10,57,6.80
2011,07,05,10,58,5.80
2011,07,05,10,59,5.20
2011,07,05,11,00,5.30
2011,07,05,11,01,3.50
2011,07,05,11,02,5.60
2011,07,05,11,03,7.80
2011,07,05,11,04,5.50
2011,07,05,11,05,4.30
2011,07,05,11,06,3.90
2011,07,05,11,07,8.70
2011,07,05,11,08,8.30
2011,07,05,11,09,5.80
2011,07,05,11,10,3.80
2011,07,05,11,11,5.30
2011,07,05,11,12,7.00
2011,07,05,11,13,5.30
2011,07,05,11,14,4.40
2011,07,05,11,15,3.10
2011,07,05,11,16,6.50
2011,07,05,11,17,6.40
2011,07,05,11,18,4.70
2011,07,05,11,19,5.90
2011,07,05,11,20,5.20
2011,07,05,11,21,8.00
2011,07,05,11,22,5.50
2011,07,05,11,23,3.60
2011,07,05,11,24,6.40
2011,07,05,11,25,6.70
2011,07,05,11,26,6.50
2011,07,05,11,27,3.50
2011,07,05,11,28,9.60
2011,07,05,11,29,6.80
2011,07,05,11,30,4.10
2011,07,05,11,31,8.90
2011,07,05,11,32,8.00
2011,07,05,11,33,7.40
2011,07,05,11,34,6.40
2011,07,05,11,35,5.60
2011,07,05,11,36,4.10
2011,07,05,11,37,6.20
2011,07,05,11,38,9.70
2011,07,05,11,39,6.70
2011,07,05,11,40,7.60
2011,07,05,11,41,4.40
2011,07,05,11,42,4.90
2011,07,05,11,43,3.10
2011,07,05,11,44,5.30
2011,07,05,11,45,3.60
2011,07,05,11,46,4.70
2011,07,05,11,47,4.70
2011,07,05,11,48,3.20
2011,07,05,11,49,2.50
2011,07,05,11,50,5.50
2011,07,05,11,51,8.10
2011,07,05,11,52,8.30
2011,07,05,11,53,7.10
2011,07,05,11,54,8.20
2011,07,05,11,55,6.60
2011,07,05,11,56,6.00
2011,07,05,11,57,3.90
2011,07,05,11,58,5.60
2011,07,05,11,59,5.80
2011,07,05,12,00,5.00
2011,07,05,12,01,3.00
2011,07,05,12,02,5.50
2011,07,05,12,03,8.50
2011,07,05,12,04,8.90
2011,07,05,12,05,4.00
2011,07,05,12,06,9.10
2011,07,05,12,07,7.90
2011,07,05,12,08,4.60
2011,07,05,12,09,3.90
2011,07,05,12,10,9.60
2011,07,05,12,11,7.90
2011,07,05,12,12,5.70
2011,07,05,12,13,8.80
2011,07,05,12,14,7.00
2011,07,05,12,15,7.10
2011,07,05,12,16,6.80
2011,07,05,12,17,6.40
2011,07,05,12,18,2.70
2011,07,05,12,19,1.90
2011,07,05,12,20,6.30
2011,07,05,12,21,5.10
2011,07,05,12,22,8.20
2011,07,05,12,23,6.10
2011,07,05,12,24,7.70
2011,07,05,12,25,6.70
2011,07,05,12,26,5.80
2011,07,05,12,27,3.40
2011,07,05,12,28,8.60
2011,07,05,12,29,7.40
2011,07,05,12,30,7.00
2011,07,05,12,31,6.60
2011,07,05,12,32,7.70
2011,07,05,12,33,7.70
2011,07,05,12,34,3.60
2011,07,05,12,35,4.90
2011,07,05,12,36,6.50
2011,07,05,12,37,2.50
2011,07,05,12,38,6.90
2011,07,05,12,39,8.10
2011,07,05,12,40,5.00
2011,07,05,12,41,9.60
2011,07,05,12,42,7.20
2011,07,05,12,43,8.30
2011,07,05,12,44,6.80
2011,07,05,12,45,7.40
2011,07,05,12,46,3.50
2011,07,05,12,47,6.90
2011,07,05,12,48,8.90
2011,07,05,12,49,9.30
2011,07,05,12,50,5.80
2011,07,05,12,51,4.40
2011,07,05,12,52,7.60
2011,07,05,12,53,8.70
2011,07,05,12,54,6.40
2011,07,05,12,55,5.10
2011,07,05,12,56,8.00
2011,07,05,12,57,5.60
2011,07,05,12,58,5.10
2011,07,05,12,59,6.80
2011,07,05,13,00,3.90
2011,07,05,13,01,7.50
2011,07,05,13,02,8.40
2011,07,05,13,03,5.40
2011,07,05,13,04,5.10
2011,07,05,13,05,6.20
2011,07,05,13,06,6.00
2011,07,05,13,07,6.60
2011,07,05,13,08,3.10
2011,07,05,13,09,6.50
2011,07,05,13,10,4.00
2011,07,05,13,11,7.80
2011,07,05,13,12,4.70
2011,07,05,13,13,5.70
2011,07,05,13,14,7.20
2011,07,05,13,15,4.60
2011,07,05,13,16,6.00
2011,07,05,13,17,6.40
2011,07,05,13,18,8.90
2011,07,05,13,19,3.60
2011,07,05,13,20,7.90
2011,07,05,13,21,5.20
2011,07,05,13,22,5.10
2011,07,05,13,23,7.90
2011,07,05,13,24,7.10
2011,07,05,13,25,7.00
2011,07,05,13,26,7.70
2011,07,05,13,27,11.70
2011,07,05,13,28,8.10
2011,07,05,13,29,6.30
2011,07,05,13,30,5.50
2011,07,05,13,31,8.20
2011,07,05,13,32,4.80
2011,07,05,13,33,4.50
2011,07,05,13,34,9.00
2011,07,05,13,35,11.00
2011,07,05,13,36,10.20
2011,07,05,13,37,9.30
2011,07,05,13,38,3.00
2011,07,05,13,39,3.20
2011,07,05,13,40,6.60
2011,07,05,13,41,4.70
2011,07,05,13,42,6.50
2011,07,05,13,43,5.80
2011,07,05,13,44,8.70
2011,07,05,13,45,7.00
2011,07,05,13,46,8.20
2011,07,05,13,47,9.10
2011,07,05,13,48,6.90
2011,07,05,13,49,1.90
2011,07,05,13,50,9.30
2011,07,05,13,51,8.60
2011,07,05,13,52,8.10
2011,07,05,13,53,7.60
2011,07,05,13,54,9.70
2011,07,05,13,55,7.30
2011,07,05,13,56,4.70
2011,07,05,13,57,7.00
2011,07,05,13,58,8.50
2011,07,05,13,59,7.60
2011,07,05,14,00,7.30
2011,07,05,14,01,6.40
2011,07,05,14,02,5.90
2011,07,05,14,03,8.40
2011,07,05,14,04,7.00
2011,07,05,14,05,10.80
2011,07,05,14,06,4.90
2011,07,05,14,07,10.30
2011,07,05,14,08,6.60
2011,07,05,14,09,6.20
2011,07,05,14,10,8.40
2011,07,05,14,11,7.40
2011,07,05,14,12,8.60
2011,07,05,14,13,9.70
2011,07,05,14,14,11.50
2011,07,05,14,15,9.90
2011,07,05,14,16,6.90
2011,07,05,14,17,7.60
2011,07,05,14,18,9.70
2011,07,05,14,19,12.50
2011,07,05,14,20,9.50
2011,07,05,14,21,5.80
2011,07,05,14,22,6.80
2011,07,05,14,23,6.00
2011,07,05,14,24,7.90
2011,07,05,14,25,9.80
2011,07,05,14,26,10.40
2011,07,05,14,27,6.00
2011,07,05,14,28,8.90
2011,07,05,14,29,10.50
2011,07,05,14,30,4.80
2011,07,05,14,31,6.40
2011,07,05,14,32,10.30
2011,07,05,14,33,8.00
2011,07,05,14,34,6.60
2011,07,05,14,35,6.60
2011,07,05,14,36,10.30
2011,07,05,14,37,8.20
2011,07,05,14,38,5.70
2011,07,05,14,39,8.60
2011,07,05,14,40,7.60
2011,07,05,14,41,9.30
2011,07,05,14,42,9.00
2011,07,05,14,43,8.90
2011,07,05,14,44,9.60
2011,07,05,14,45,4.40
2011,07,05,14,46,7.90
2011,07,05,14,47,9.60
2011,07,05,14,48,6.00
2011,07,05,14,49,6.70
2011,07,05,14,50,6.20
2011,07,05,14,51,6.40
2011,07,05,14,52,6.00
2011,07,05,14,53,7.00
2011,07,05,14,54,5.40
2011,07,05,14,55,5.00
2011,07,05,14,56,7.20
2011,07,05,14,57,10.30
2011,07,05,14,58,7.60
2011,07,05,14,59,10.30
2011,07,05,15,00,8.80
2011,07,05,15,01,7.20
2011,07,05,15,02,6.80
2011,07,05,15,03,6.30
2011,07,05,15,04,6.80
2011,07,05,15,05,10.20
2011,07,05,15,06,6.00
2011,07,05,15,07,10.70
2011,07,05,15,08,9.10
2011,07,05,15,09,9.10
2011,07,05,15,10,9.90
2011,07,05,15,11,11.20
2011,07,05,15,12,12.10
2011,07,05,15,13,9.20
2011,07,05,15,14,7.90
2011,07,05,15,15,6.40
2011,07,05,15,16,6.10
2011,07,05,15,17,8.90
2011,07,05,15,18,8.80
2011,07,05,15,19,9.20
2011,07,05,15,20,8.60
2011,07,05,15,21,7.00
2011,07,05,15,22,9.60
2011,07,05,15,23,11.30
2011,07,05,15,24,10.30
2011,07,05,15,25,11.60
2011,07,05,15,26,10.30
2011,07,05,15,27,8.70
2011,07,05,15,28,8.10
2011,07,05,15,29,8.50
2011,07,05,15,30,12.50
2011,07,05,15,31,12.20
2011,07,05,15,32,15.30
2011,07,05,15,33,13.20
2011,07,05,15,34,8.30
2011,07,05,15,35,4.30
2011,07,05,15,36,8.10
2011,07,05,15,37,6.20
2011,07,05,15,38,8.70
2011,07,05,15,39,7.60
2011,07,05,15,40,9.80
2011,07,05,15,41,11.30
2011,07,05,15,42,7.10
2011,07,05,15,43,9.80
2011,07,05,15,44,8.40
2011,07,05,15,45,7.90
2011,07,05,15,46,11.80
2011,07,05,15,47,9.50
2011,07,05,15,48,7.60
2011,07,05,15,49,10.90
2011,07,05,15,50,8.80
2011,07,05,15,51,9.30
2011,07,05,15,52,8.00
2011,07,05,15,53,8.10
2011,07,05,15,54,10.10
2011,07,05,15,55,4.70
2011,07,05,15,56,6.70
2011,07,05,15,57,9.10
2011,07,05,15,58,15.40
2011,07,05,15,59,7.30
2011,07,05,16,00,7.70
2011,07,05,16,01,7.30
2011,07,05,16,02,8.30
2011,07,05,16,03,7.40
2011,07,05,16,04,12.70
2011,07,05,16,05,6.40
2011,07,05,16,06,12.40
2011,07,05,16,07,5.70
2011,07,05,16,08,7.60
2011,07,05,16,09,8.50
2011,07,05,16,10,6.60
2011,07,05,16,11,6.00
2011,07,05,16,12,11.50
2011,07,05,16,13,11.20
2011,07,05,16,14,6.90
2011,07,05,16,15,10.00
2011,07,05,16,16,11.40
2011,07,05,16,17,11.40
2011,07,05,16,18,9.00
2011,07,05,16,19,9.70
2011,07,05,16,20,7.80
2011,07,05,16,21,8.50
2011,07,05,16,22,9.40
2011,07,05,16,23,9.60
2011,07,05,16,24,9.20
2011,07,05,16,25,10.40
2011,07,05,16,26,6.80
2011,07,05,16,27,8.00
2011,07,05,16,28,8.20
2011,07,05,16,29,7.20
2011,07,05,16,30,4.70
2011,07,05,16,31,6.80
2011,07,05,16,32,6.70
2011,07,05,16,33,7.30
2011,07,05,16,34,8.30
2011,07,05,16,35,7.80
2011,07,05,16,36,7.80
2011,07,05,16,37,8.90
2011,07,05,16,38,7.60
2011,07,05,16,39,5.70
2011,07,05,16,40,3.40
2011,07,05,16,41,4.70
2011,07,05,16,42,6.40
2011,07,05,16,43,5.60
2011,07,05,16,44,6.00
2011,07,05,16,45,7.70
2011,07,05,16,46,8.60
2011,07,05,16,47,6.40
2011,07,05,16,48,5.80
2011,07,05,16,49,5.20
2011,07,05,16,50,5.20
2011,07,05,16,51,6.60
2011,07,05,16,52,8.80
2011,07,05,16,53,7.50
2011,07,05,16,54,7.50
2011,07,05,16,55,6.70
2011,07,05,16,56,7.80
2011,07,05,16,57,8.20
2011,07,05,16,58,6.50
2011,07,05,16,59,4.60
2011,07,05,17,00,8.90
2011,07,05,17,01,12.20
2011,07,05,17,02,10.30
2011,07,05,17,03,11.30
2011,07,05,17,04,10.00
2011,07,05,17,05,6.40
2011,07,05,17,06,4.40
2011,07,05,17,07,3.50
2011,07,05,17,08,8.30
2011,07,05,17,09,5.70
2011,07,05,17,10,5.70
2011,07,05,17,11,6.40
2011,07,05,17,12,7.80
2011,07,05,17,13,8.10
2011,07,05,17,14,5.40
2011,07,05,17,15,6.60
2011,07,05,17,16,4.60
2011,07,05,17,17,7.10
2011,07,05,17,18,5.20
2011,07,05,17,19,4.80
2011,07,05,17,20,3.10
2011,07,05,17,21,6.40
2011,07,05,17,22,5.70
2011,07,05,17,23,5.00
2011,07,05,17,24,4.50
2011,07,05,17,25,4.50
2011,07,05,17,26,4.90
2011,07,05,17,27,13.20
2011,07,05,17,28,7.10
2011,07,05,17,29,7.40
2011,07,05,17,30,7.60
2011,07,05,17,31,6.60
2011,07,05,17,32,6.40
2011,07,05,17,33,12.50
2011,07,05,17,34,10.30
2011,07,05,17,35,9.70
2011,07,05,17,36,13.00
2011,07,05,17,37,11.40
2011,07,05,17,38,9.30
2011,07,05,17,39,9.60
2011,07,05,17,40,5.70
2011,07,05,17,41,5.20
2011,07,05,17,42,11.40
2011,07,05,17,43,10.30
2011,07,05,17,44,6.80
2011,07,05,17,45,8.90
2011,07,05,17,46,8.70
2011,07,05,17,47,4.80
2011,07,05,17,48,5.40
2011,07,05,17,49,6.80
2011,07,05,17,50,5.00
2011,07,05,17,51,6.20
2011,07,05,17,52,10.80
2011,07,05,17,53,13.60
2011,07,05,17,54,9.80
2011,07,05,17,55,6.40
2011,07,05,17,56,6.40
2011,07,05,17,57,9.10
2011,07,05,17,58,7.60
2011,07,05,17,59,9.30
2011,07,05,18,00,10.30
2011,07,05,18,01,6.40
2011,07,05,18,02,9.80
2011,07,05,18,03,3.50
2011,07,05,18,04,7.70
2011,07,05,18,05,9.10
2011,07,05,18,06,6.30
2011,07,05,18,07,8.90
2011,07,05,18,08,8.30
2011,07,05,18,09,4.80
2011,07,05,18,10,8.20
2011,07,05,18,11,5.50
2011,07,05,18,12,8.20
2011,07,05,18,13,8.10
2011,07,05,18,14,8.90
2011,07,05,18,15,8.00
2011,07,05,18,16,8.10
2011,07,05,18,17,12.00
2011,07,05,18,18,8.90
2011,07,05,18,19,5.20
2011,07,05,18,20,6.20
2011,07,05,18,21,6.10
2011,07,05,18,22,6.40
2011,07,05,18,23,7.40
2011,07,05,18,24,4.80
2011,07,05,18,25,5.60
2011,07,05,18,26,7.10
2011,07,05,18,27,6.60
2011,07,05,18,28,5.70
2011,07,05,18,29,6.30
2011,07,05,18,30,8.60
2011,07,05,18,31,8.60
2011,07,05,18,32,2.70
2011,07,05,18,33,5.80
2011,07,05,18,34,5.60
2011,07,05,18,35,5.60
2011,07,05,18,36,7.50
2011,07,05,18,37,9.10
2011,07,05,18,38,7.10
2011,07,05,18,39,7.20
2011,07,05,18,40,8.60
2011,07,05,18,41,5.40
2011,07,05,18,42,7.00
2011,07,05,18,43,7.20
2011,07,05,18,44,6.20
2011,07,05,18,45,6.70
2011,07,05,18,46,6.00
2011,07,05,18,47,6.80
2011,07,05,18,48,6.30
2011,07,05,18,49,5.80
2011,07,05,18,50,7.00
2011,07,05,18,51,8.00
2011,07,05,18,52,7.30
2011,07,05,18,53,5.30
2011,07,05,18,54,3.90
2011,07,05,18,55,3.80
2011,07,05,18,56,8.50
2011,07,05,18,57,3.60
2011,07,05,18,58,2.60
2011,07,05,18,59,2.40
2011,07,05,19,00,3.90
2011,07,05,19,01,4.60
2011,07,05,19,02,6.50
2011,07,05,19,03,7.00
2011,07,05,19,04,7.00
2011,07,05,19,05,4.20
2011,07,05,19,06,3.00
2011,07,05,19,07,5.90
2011,07,05,19,08,9.10
2011,07,05,19,09,5.60
2011,07,05,19,10,2.70
2011,07,05,19,11,2.80
2011,07,05,19,12,7.20
2011,07,05,19,13,6.50
2011,07,05,19,14,2.10
2011,07,05,19,15,3.10
2011,07,05,19,16,4.90
2011,07,05,19,17,3.60
2011,07,05,19,18,6.50
2011,07,05,19,19,4.70
2011,07,05,19,20,4.00